This is the latest recevied weather packets stored in our database for station/object SV9TNF-57. If no packets are shown the sender has not sent any weather packets the latest 10 day(s).
| Time | Temp. | Humidity | Pressure | Rain* | Wind** | Luminosity | Snow |
|---|---|---|---|---|---|---|---|
| 1788486268 | 25° C | 55% | 993.3 hPa | 0 mm | 4.47 m/s, 325° | - | - |
| 1788485968 | 25° C | 54% | 993.2 hPa | 0 mm | 3.58 m/s, 279° | - | - |
| 1788485669 | 25.56° C | 53% | 993.2 hPa | 0 mm | 2.68 m/s, 319° | - | - |
| 1788485368 | 25.56° C | 53% | 993.4 hPa | 0 mm | 2.24 m/s, 308° | - | - |
| 1788485068 | 25.56° C | 52% | 993.3 hPa | 0 mm | 2.68 m/s, 279° | - | - |
| 1788484768 | 25° C | 53% | 993.3 hPa | 0 mm | 4.92 m/s, 290° | - | - |
| 1788484468 | 25° C | 54% | 993.3 hPa | 0 mm | 0 m/s | - | - |
| 1788484168 | 25° C | 54% | 993.3 hPa | 0 mm | 2.68 m/s, 325° | - | - |
| 1788483867 | 25° C | 55% | 993.4 hPa | 0 mm | 4.02 m/s, 280° | - | - |
| 1788483567 | 25° C | 54% | 993.3 hPa | 0 mm | 5.36 m/s, 359° | - | - |
| 1788483267 | 25° C | 54% | 993.2 hPa | 0 mm | 3.58 m/s, 308° | - | - |
| 1788482967 | 25.56° C | 53% | 993.3 hPa | 0 mm | 4.47 m/s, 290° | - | - |
| 1788482675 | 25.56° C | 53% | 993.2 hPa | 0 mm | 2.24 m/s, 307° | - | - |
| 1788482367 | 25.56° C | 52% | 993.3 hPa | 0 mm | 0.45 m/s, 308° | - | - |
| 1788482067 | 26.11° C | 51% | 993.2 hPa | 0 mm | 6.26 m/s, 289° | - | - |
| 1788481767 | 26.11° C | 51% | 993.1 hPa | 0 mm | 9.39 m/s, 21° | - | - |
| 1788481467 | 26.11° C | 51% | 993 hPa | 0 mm | 8.49 m/s, 318° | - | - |
| 1788481167 | 26.11° C | 50% | 993.3 hPa | 0 mm | 8.49 m/s, 321° | - | - |
| 1788480866 | 26.11° C | 51% | 993.2 hPa | 0 mm | 6.71 m/s, 227° | - | - |
| 1788480566 | 26.11° C | 51% | 993.1 hPa | 0 mm | 6.26 m/s, 29° | - | - |
| 1788480266 | 26.11° C | 51% | 993.2 hPa | 0 mm | 8.94 m/s, 307° | - | - |
| 1788479966 | 26.11° C | 51% | 993.2 hPa | 0 mm | 4.92 m/s, 332° | - | - |
| 1788479666 | 26.11° C | 50% | 993.3 hPa | 0 mm | 6.26 m/s, 283° | - | - |
| 1788479366 | 26.11° C | 50% | 993.2 hPa | 0 mm | 8.05 m/s, 315° | - | - |
| 1788479066 | 26.11° C | 50% | 993.3 hPa | 0 mm | 5.81 m/s, 259° | - | - |
* Rain latest hour (hover to see other rain measurements)
** Current wind speed in m/s (hover to see current wind gust speed)